• In Deutschland
  • Länderverzeichnis
  • Für 7 Tage
  • Wassertemperatur
  • Satellitenkarten
  • Wetterkarte
  • Widgets
  • user-avatar
    Anmelden

    Stündliche Wetter Heidelberg

    Heute, 19 Oktober, Donnerstag

    Zeit Temperatur Niederschläge Wind Luftdruck Luftfeuchtigkeit
    00:00 +12°C° 0 mm 1 m/S 731 mmHg 68%
    01:00 +12°C° 0 mm 1 m/S 731 mmHg 69%
    02:00 +12°C° 0 mm 1 m/S 731 mmHg 69%
    03:00 +12°C° 0 mm 1 m/S 731 mmHg 70%
    04:00 +11°C° 0 mm 1 m/S 731 mmHg 70%
    05:00 +11°C° 0 mm 1 m/S 731 mmHg 70%
    06:00 +11°C° 0 mm 1 m/S 731 mmHg 69%
    07:00 +11°C° 0 mm 1 m/S 731 mmHg 68%
    08:00 +13°C° 0 mm 1 m/S 731 mmHg 63%
    09:00 +15°C° 0 mm 1 m/S 731 mmHg 58%
    10:00 +18°C° 0 mm 1 m/S 731 mmHg 53%
    11:00 +19°C° 0 mm 1 m/S 731 mmHg 49%
    12:00 +20°C° 0 mm 2 m/S 731 mmHg 46%
    13:00 +21°C° 0 mm 2 m/S 731 mmHg 43%
    14:00 +21°C° 0 mm 2 m/S 731 mmHg 45%
    15:00 +22°C° 0 mm 1 m/S 731 mmHg 48%
    16:00 +21°C° 0 mm 1 m/S 730 mmHg 51%
    17:00 +20°C° 0 mm 1 m/S 730 mmHg 55%
    18:00 +18°C° 0 mm 1 m/S 731 mmHg 58%
    19:00 +16°C° 0 mm 1 m/S 731 mmHg 62%
    20:00 +15°C° 0 mm 1 m/S 731 mmHg 63%
    21:00 +15°C° 0 mm 1 m/S 731 mmHg 65%
    22:00 +14°C° 0 mm 1 m/S 731 mmHg 66%
    23:00 +14°C° 0 mm 1 m/S 731 mmHg 67%

    Morgen, 20 Oktober, Freitag

    Zeit Temperatur Niederschläge Wind Luftdruck Luftfeuchtigkeit
    00:00 +13°C° 0 mm 1 m/S 731 mmHg 69%
    01:00 +13°C° 0 mm 1 m/S 731 mmHg 70%
    02:00 +13°C° 0 mm 1 m/S 731 mmHg 70%
    03:00 +13°C° 0 mm 1 m/S 731 mmHg 69%
    04:00 +13°C° 0 mm 1 m/S 732 mmHg 69%
    05:00 +13°C° 0 mm 1 m/S 732 mmHg 70%
    06:00 +13°C° 0 mm 2 m/S 732 mmHg 71%
    07:00 +12°C° 0 mm 2 m/S 732 mmHg 72%
    08:00 +13°C° 0,6 mm 2 m/S 732 mmHg 74%
    09:00 +13°C° 0,6 mm 2 m/S 733 mmHg 76%
    10:00 +14°C° 0,6 mm 2 m/S 733 mmHg 78%
    11:00 +14°C° 0,2 mm 3 m/S 733 mmHg 75%
    12:00 +16°C° 0,2 mm 3 m/S 733 mmHg 73%
    13:00 +17°C° 0,2 mm 4 m/S 734 mmHg 70%
    14:00 +17°C° 0 mm 4 m/S 733 mmHg 71%
    15:00 +17°C° 0 mm 3 m/S 733 mmHg 72%
    16:00 +17°C° 0 mm 3 m/S 733 mmHg 72%
    17:00 +16°C° 0 mm 3 m/S 733 mmHg 77%
    18:00 +15°C° 0 mm 2 m/S 734 mmHg 82%
    19:00 +13°C° 0 mm 1 m/S 734 mmHg 86%
    20:00 +13°C° 0 mm 1 m/S 734 mmHg 87%
    21:00 +13°C° 0 mm 1 m/S 734 mmHg 87%
    22:00 +13°C° 0 mm 1 m/S 734 mmHg 88%
    23:00 +13°C° 0 mm 1 m/S 734 mmHg 88%

    übermorgen, 21 Oktober, Samstag

    Zeit Temperatur Niederschläge Wind Luftdruck Luftfeuchtigkeit
    00:00 +13°C° 0 mm 1 m/S 734 mmHg 87%
    01:00 +13°C° 0 mm 2 m/S 734 mmHg 87%
    02:00 +13°C° 0 mm 2 m/S 733 mmHg 85%
    03:00 +13°C° 0 mm 2 m/S 733 mmHg 83%
    04:00 +14°C° 0 mm 2 m/S 733 mmHg 81%
    05:00 +13°C° 0 mm 2 m/S 733 mmHg 81%
    06:00 +13°C° 0 mm 2 m/S 733 mmHg 81%
    07:00 +13°C° 0 mm 2 m/S 733 mmHg 81%
    08:00 +13°C° 0 mm 3 m/S 733 mmHg 76%
    09:00 +16°C° 0 mm 3 m/S 733 mmHg 72%
    10:00 +17°C° 0 mm 4 m/S 733 mmHg 67%
    11:00 +18°C° 0 mm 4 m/S 733 mmHg 65%
    12:00 +19°C° 0 mm 4 m/S 733 mmHg 63%
    13:00 +19°C° 0 mm 4 m/S 733 mmHg 61%
    14:00 +18°C° 1 mm 4 m/S 733 mmHg 69%
    15:00 +15°C° 1 mm 4 m/S 733 mmHg 77%
    16:00 +14°C° 1 mm 4 m/S 733 mmHg 85%
    17:00 +13°C° 0,3 mm 4 m/S 733 mmHg 85%
    18:00 +13°C° 0,3 mm 4 m/S 733 mmHg 85%
    19:00 +12°C° 0,3 mm 4 m/S 734 mmHg 86%
    20:00 +12°C° 0,1 mm 4 m/S 734 mmHg 85%
    21:00 +11°C° 0,1 mm 4 m/S 734 mmHg 85%
    22:00 +11°C° 0,1 mm 4 m/S 735 mmHg 84%
    23:00 +11°C° 0,1 mm 4 m/S 735 mmHg 83%

    22 Oktober, Sonntag

    Zeit Temperatur Niederschläge Wind Luftdruck Luftfeuchtigkeit
    00:00 +10°C° 0,1 mm 4 m/S 735 mmHg 83%
    01:00 +10°C° 0,1 mm 4 m/S 735 mmHg 82%
    02:00 +10°C° 0 mm 4 m/S 735 mmHg 83%
    03:00 +8°C° 0 mm 4 m/S 735 mmHg 84%
    04:00 +7°C° 0 mm 4 m/S 735 mmHg 85%
    05:00 +7°C° 0 mm 4 m/S 735 mmHg 85%
    06:00 +7°C° 0 mm 4 m/S 735 mmHg 86%
    07:00 +6°C° 0 mm 4 m/S 735 mmHg 86%
    08:00 +7°C° 0 mm 4 m/S 735 mmHg 82%
    09:00 +8°C° 0 mm 5 m/S 735 mmHg 78%
    10:00 +8°C° 0 mm 5 m/S 735 mmHg 73%
    11:00 +8°C° 0 mm 5 m/S 735 mmHg 71%
    12:00 +9°C° 0 mm 5 m/S 735 mmHg 69%
    13:00 +9°C° 0 mm 6 m/S 735 mmHg 67%
    14:00 +9°C° 0,1 mm 5 m/S 735 mmHg 67%
    15:00 +9°C° 0,1 mm 5 m/S 735 mmHg 68%
    16:00 +10°C° 0,1 mm 4 m/S 735 mmHg 68%
    17:00 +8°C° 0,1 mm 4 m/S 735 mmHg 72%
    18:00 +8°C° 0,1 mm 4 m/S 735 mmHg 75%
    19:00 +7°C° 0,1 mm 4 m/S 736 mmHg 79%
    20:00 +7°C° 0,3 mm 4 m/S 736 mmHg 81%
    21:00 +7°C° 0,3 mm 4 m/S 736 mmHg 83%
    22:00 +7°C° 0,3 mm 5 m/S 736 mmHg 85%
    23:00 +7°C° 0,4 mm 5 m/S 736 mmHg 85%

    23 Oktober, Montag

    Zeit Temperatur Niederschläge Wind Luftdruck Luftfeuchtigkeit
    00:00 +7°C° 0,4 mm 5 m/S 736 mmHg 86%
    01:00 +7°C° 0,4 mm 5 m/S 736 mmHg 87%
    02:00 +7°C° 0,3 mm 5 m/S 736 mmHg 87%
    03:00 +7°C° 0,3 mm 5 m/S 736 mmHg 87%
    04:00 +7°C° 0,3 mm 5 m/S 736 mmHg 87%
    05:00 +7°C° 0,2 mm 4 m/S 737 mmHg 88%
    06:00 +7°C° 0,2 mm 4 m/S 737 mmHg 88%
    07:00 +7°C° 0,2 mm 4 m/S 738 mmHg 88%
    08:00 +7°C° 0 mm 4 m/S 738 mmHg 86%
    09:00 +8°C° 0 mm 4 m/S 739 mmHg 83%
    10:00 +10°C° 0 mm 4 m/S 739 mmHg 81%
    11:00 +10°C° 0,1 mm 4 m/S 739 mmHg 80%
    12:00 +10°C° 0,1 mm 4 m/S 739 mmHg 80%
    13:00 +10°C° 0,1 mm 4 m/S 739 mmHg 80%
    14:00 +10°C° 0 mm 4 m/S 739 mmHg 80%
    15:00 +10°C° 0 mm 4 m/S 739 mmHg 81%
    16:00 +10°C° 0 mm 3 m/S 739 mmHg 82%
    17:00 +10°C° 0,1 mm 3 m/S 740 mmHg 84%
    18:00 +9°C° 0,1 mm 3 m/S 740 mmHg 86%
    19:00 +9°C° 0,1 mm 2 m/S 740 mmHg 88%
    20:00 +9°C° 0 mm 2 m/S 740 mmHg 89%
    21:00 +9°C° 0 mm 2 m/S 740 mmHg 89%
    22:00 +8°C° 0 mm 2 m/S 740 mmHg 90%
    23:00 +8°C° 0 mm 2 m/S 740 mmHg 90%

    24 Oktober, Dienstag

    Zeit Temperatur Niederschläge Wind Luftdruck Luftfeuchtigkeit
    00:00 +8°C° 0 mm 2 m/S 740 mmHg 90%
    01:00 +8°C° 0 mm 2 m/S 740 mmHg 90%
    02:00 +7°C° 0 mm 2 m/S 740 mmHg 90%
    03:00 +7°C° 0 mm 2 m/S 740 mmHg 90%
    04:00 +7°C° 0 mm 2 m/S 740 mmHg 90%
    05:00 +7°C° 0 mm 2 m/S 740 mmHg 89%
    06:00 +7°C° 0 mm 2 m/S 740 mmHg 88%
    07:00 +7°C° 0 mm 2 m/S 740 mmHg 87%
    08:00 +8°C° 0 mm 2 m/S 740 mmHg 82%
    09:00 +10°C° 0 mm 2 m/S 740 mmHg 77%
    10:00 +12°C° 0 mm 2 m/S 741 mmHg 72%
    11:00 +13°C° 0 mm 2 m/S 740 mmHg 67%
    12:00 +15°C° 0 mm 2 m/S 740 mmHg 63%
    13:00 +16°C° 0 mm 2 m/S 740 mmHg 58%
    14:00 +16°C° 0 mm 1 m/S 740 mmHg 60%
    15:00 +16°C° 0 mm 1 m/S 739 mmHg 62%
    16:00 +16°C° 0 mm 1 m/S 739 mmHg 63%
    17:00 +15°C° 0 mm 1 m/S 739 mmHg 67%
    18:00 +13°C° 0 mm 1 m/S 739 mmHg 70%
    19:00 +12°C° 0 mm 1 m/S 739 mmHg 74%
    20:00 +12°C° 0 mm 1 m/S 739 mmHg 75%
    21:00 +12°C° 0 mm 1 m/S 739 mmHg 77%
    22:00 +11°C° 0 mm 1 m/S 739 mmHg 78%
    23:00 +11°C° 0 mm 1 m/S 739 mmHg 79%
    Mehr zeigen